Location: Marse
(42.1502°N, 110.9866°W)
Time: 05:26:22
(UTC+00:00)

ZACube-1 - Pass Details

Date: 03 July 2022
Orbit: 582 x 661 km, 97.6° (Epoch: 11 August)

Event Time Altitude Azimuth Distance (km) Brightness Sun altitude
Rises 10:53:38 0° 18° (NNE) 2,962 ? -9.5°
Reaches altitude 10° 10:55:55 10° 24° (NNE) 2,058 ? -9.2°
Maximum altitude 11:00:15 47° 99° (E) 874 ? -8.6°
Drops below altitude 10° 11:04:37 10° 173° (S) 2,069 ? -8.0°
Sets 11:06:55 0° 179° (S) 2,979 ? -7.7°
